This is the latest recevied weather packets stored in our database for station/object KJ4EBE. If no packets are shown the sender has not sent any weather packets the latest 10 day(s).
| Time | Temp. | Humidity | Pressure | Rain* | Wind** | Luminosity | Snow |
|---|---|---|---|---|---|---|---|
| 1777128465 | 25.56° C | 88% | 1008.6 hPa | 0 mm | - | 196 W/m² | - |
| 1777128162 | 25° C | 89% | 1008.6 hPa | 0 mm | - | 193 W/m² | - |
| 1777127860 | 25° C | 90% | 1008.6 hPa | 0 mm | - | 202 W/m² | - |
| 1777127557 | 25° C | 90% | 1008.5 hPa | 0 mm | - | 102 W/m² | - |
| 1777127253 | 24.44° C | 90% | 1008.5 hPa | 0 mm | - | 160 W/m² | - |
| 1777126949 | 25° C | 90% | 1008.5 hPa | 0 mm | - | 142 W/m² | - |
| 1777126645 | 24.44° C | 90% | 1008.5 hPa | 0 mm | - | 138 W/m² | - |
| 1777126341 | 24.44° C | 89% | 1008.5 hPa | 0 mm | - | 134 W/m² | - |
| 1777126037 | 24.44° C | 90% | 1008.6 hPa | 0 mm | - | 124 W/m² | - |
| 1777125735 | 24.44° C | 90% | 1008.6 hPa | 0 mm | - | 93 W/m² | - |
| 1777125430 | 24.44° C | 90% | 1008.6 hPa | 0 mm | - | 108 W/m² | - |
| 1777125125 | 23.89° C | 90% | 1008.5 hPa | 0 mm | - | 99 W/m² | - |
| 1777124821 | 23.89° C | 90% | 1008.5 hPa | 0 mm | - | 64 W/m² | - |
| 1777124516 | 23.89° C | 90% | 1008.6 hPa | 0 mm | - | 70 W/m² | - |
| 1777124213 | 23.89° C | 90% | 1008.4 hPa | 0 mm | - | 57 W/m² | - |
| 1777123911 | 23.89° C | 91% | 1008.1 hPa | 0 mm | - | 68 W/m² | - |
| 1777123607 | 23.89° C | 91% | 1008.2 hPa | 0 mm | - | 54 W/m² | - |
| 1777123303 | 23.89° C | 90% | 1008.2 hPa | 0 mm | - | 48 W/m² | - |
| 1777122999 | 23.89° C | 91% | 1008.2 hPa | 0 mm | - | 40 W/m² | - |
| 1777122696 | 23.89° C | 91% | 1008.1 hPa | 0 mm | - | 42 W/m² | - |
| 1777122391 | 23.33° C | 92% | 1008.1 hPa | 0 mm | - | 43 W/m² | - |
| 1777122088 | 23.33° C | 92% | 1007.8 hPa | 0 mm | - | 36 W/m² | - |
| 1777121784 | 23.33° C | 92% | 1007.9 hPa | 0 mm | - | 27 W/m² | - |
| 1777121480 | 23.33° C | 91% | 1007.6 hPa | 0 mm | - | 14 W/m² | - |
| 1777121175 | 23.33° C | 91% | 1007.6 hPa | 0 mm | - | 15 W/m² | - |
* Rain latest hour (hover to see other rain measurements)
** Current wind speed in m/s (hover to see current wind gust speed)